Regional Weather Roundup
Issued by NWS Sioux Falls, SD

Home | Current Version | Previous Version | Graphics & Text | Print | Product List | Glossary Off
Versions: 1 2 3 4 5 6 7 8 9 10 11 12 13 14 15 16 17 18 19 20 21 22 23 24 25 26 27 28 29 30 31 32 33 34 35 36 37 38 39 40 41 42 43 44 45 46 47 48 49 50

927
ASUS43 KFSD 131410
RWRFSD

WEATHER ROUNDUP FOR SE SOUTH DAKOTA/SW MINNESOTA/NW IOWA
NATIONAL WEATHER SERVICE SIOUX FALLS SD
800 AM CST SAT FEB 13 2016

NOTE: "FAIR" INDICATES FEW OR NO CLOUDS BELOW 12,000 FEET WITH NO
SIGNIFICANT WEATHER AND OR OBSTRUCTIONS TO VISIBILITY.


SDZ038>040-050-052>070-131500-
SOUTHEAST SOUTH DAKOTA

CITY           SKY/WX    TMP DP  RH WIND       PRES   REMARKS
BROOKINGS      CLOUDY    -1  -8  72 SE12      30.49S WCI -18
CHAMBERLAIN    CLOUDY    13   9  81 SE15G23   30.34S WCI  -2
HURON          CLOUDY     7  -2  66 SE18      30.44F WCI -12
MADISON        CLOUDY     0  -4  85 SE12      30.48S WCI -18
MITCHELL       CLOUDY     8   0  69 SE16      30.49S WCI -10
SIOUX FALLS    CLOUDY     2  -7  66 SE12      30.54R WCI -15
WINNER         CLOUDY    20  13  74 S23G33    30.26F WCI   3
YANKTON        CLOUDY     7  -2  66 SE13      30.51F WCI  -9
$$

MNZ071-072-080-081-089-090-097-098-131500-
SOUTHWEST MINNESOTA

CITY           SKY/WX    TMP DP  RH WIND       PRES   REMARKS
FAIRMONT       CLOUDY    -2  -9  71 N3        30.59R
JACKSON        CLOUDY    -2  -9  71 E3        30.56S
LUVERNE        CLOUDY     3  -6  66 SE8       30.56R WCI -10
MARSHALL       CLOUDY    -2  -9  72 SE5       30.60R WCI -12
MONTEVIDEO     CLOUDY    -4  -9  77 S6        30.61F WCI -16
PIPESTONE      CLOUDY     0 -11  60 SE10      30.50R WCI -17
REDWOOD FALLS  CLOUDY    -3  -9  75 CALM      30.62R
TRACY          CLOUDY    -1  -7  76 SE3       30.57S
WINDOM         CLOUDY    -2  -9  71 CALM      30.56R
WORTHINGTON    CLOUDY    -4  -9  77 SE6       30.55S WCI -16
$$

IAZ001>003-012>014-020>022-031-032-NEZ013-014-SDZ071-131500-
NORTHWEST IOWA

CITY           SKY/WX    TMP DP  RH WIND       PRES   REMARKS
CHEROKEE       CLOUDY     2  -4  74 SE6       30.59F WCI  -9
DENISON        CLOUDY     3  -2  78 SE7       30.57S WCI  -9
ESTHERVILLE    CLOUDY    -3  -8  79 E5        30.58R WCI -13
LE MARS        CLOUDY     3  -4  72 SE9       30.58F WCI -11
ORANGE CITY    CLOUDY     1  -4  78 SE6       30.54F WCI -10
SHELDON        CLOUDY     0  -6  78 SE9       30.56S WCI -16
SIOUX CITY     CLOUDY     7  -3  64 SE12      30.58F WCI  -8
SPENCER        CLOUDY    -3  -9  75 S3        30.59R
STORM LAKE     CLOUDY     0  -6  78 SE6       30.58S WCI -12
$$

ABBREVIATIONS USED IN REMARKS
   TC - TEMPERATURE IN CELSIUS
  WCI - WIND CHILL INDEX
   HX - HEAT INDEX
  VSB - VISIBILITY





USA.gov is the U.S. government's official web portal to all federal, state and local government web resources and services.